TimeEDT,TemperatureF,Dew PointF,Humidity,Sea Level PressureIn,VisibilityMPH,Wind Direction,Wind SpeedMPH,Gust SpeedMPH,PrecipitationIn,Events,Conditions,WindDirDegrees,DateUTC
12:20 AM,73.4,69.8,88,30.00,10.0,NNE,13.8,-,N/A,,Mostly Cloudy,30,2011-11-01 04:20:00
12:53 AM,73.9,70.0,87,29.99,10.0,NNE,10.4,-,N/A,,Scattered Clouds,30,2011-11-01 04:53:00
1:53 AM,73.9,70.0,87,29.99,10.0,NNE,12.7,-,N/A,,Mostly Cloudy,30,2011-11-01 05:53:00
2:21 AM,73.4,69.8,88,29.98,10.0,NNE,12.7,20.7,N/A,,Overcast,30,2011-11-01 06:21:00
2:53 AM,73.9,70.0,87,29.97,10.0,NNE,11.5,-,N/A,,Overcast,30,2011-11-01 06:53:00
3:53 AM,73.9,70.0,87,29.97,10.0,NNE,10.4,-,N/A,,Overcast,20,2011-11-01 07:53:00
4:53 AM,73.0,70.0,90,29.97,10.0,NNE,10.4,-,N/A,,Overcast,20,2011-11-01 08:53:00
5:53 AM,73.0,69.1,87,29.98,10.0,NNE,10.4,-,N/A,,Overcast,20,2011-11-01 09:53:00
6:53 AM,73.0,70.0,90,29.99,10.0,NNE,10.4,-,N/A,,Overcast,30,2011-11-01 10:53:00
7:53 AM,73.0,70.0,90,30.00,10.0,NNE,13.8,-,N/A,,Overcast,20,2011-11-01 11:53:00
8:07 AM,73.4,69.8,88,30.01,10.0,NNE,13.8,25.3,N/A,,Overcast,30,2011-11-01 12:07:00
9:13 AM,73.4,69.8,88,30.02,10.0,NNE,15.0,21.9,N/A,,Overcast,30,2011-11-01 13:13:00
9:53 AM,75.0,70.0,84,30.03,10.0,NNE,13.8,20.7,N/A,,Overcast,30,2011-11-01 13:53:00
10:30 AM,78.8,71.6,78,30.04,10.0,NNE,11.5,24.2,N/A,,Scattered Clouds,20,2011-11-01 14:30:00
10:53 AM,78.1,70.0,76,30.04,10.0,NNE,13.8,21.9,N/A,,Scattered Clouds,20,2011-11-01 14:53:00
11:53 AM,80.1,71.1,74,30.04,10.0,NE,13.8,19.6,N/A,,Clear,40,2011-11-01 15:53:00
12:53 PM,81.0,72.0,74,30.03,10.0,NE,13.8,-,N/A,,Clear,40,2011-11-01 16:53:00
2:53 PM,84.0,70.0,63,29.99,10.0,ENE,15.0,-,N/A,,Clear,60,2011-11-01 18:53:00
3:53 PM,82.9,70.0,65,29.98,10.0,ENE,16.1,23.0,N/A,,Clear,60,2011-11-01 19:53:00
5:53 PM,81.0,68.0,65,29.99,10.0,ENE,15.0,23.0,N/A,,Clear,60,2011-11-01 21:53:00
6:53 PM,80.1,69.1,69,30.01,10.0,ENE,17.3,-,N/A,,Clear,60,2011-11-01 22:53:00
7:53 PM,79.0,70.0,74,30.02,10.0,NE,17.3,24.2,N/A,,Clear,50,2011-11-01 23:53:00
8:53 PM,78.1,70.0,76,30.04,10.0,NE,17.3,26.5,N/A,,Scattered Clouds,40,2011-11-02 00:53:00
9:53 PM,77.0,70.0,79,30.05,10.0,NE,13.8,21.9,N/A,,Partly Cloudy,40,2011-11-02 01:53:00
10:53 PM,77.0,70.0,79,30.06,10.0,NE,16.1,24.2,N/A,,Clear,40,2011-11-02 02:53:00
11:53 PM,75.9,71.1,85,30.05,10.0,NNE,16.1,-,N/A,,Overcast,30,2011-11-02 03:53:00